(185335) = 2006 VO35

Discovered at Mount Lemmon on 2006-11-11 by Mt. Lemmon Survey.

Orbit

Orbit type: Main Belt

Note: WebGL enabled browser required.

epoch2024-03-31.0
epoch JD2460400.5
perihelion date2022-04-18.83357
perihelion JD2459688.33357
argument of perihelion (°)186.84567
ascending node (°)123.50882
inclination (°)0.24134
eccentricity0.1183938
perihelion distance (AU)1.9327741
Tisserand w.r.t. Jupiter3.7
ΔV w.r.t. Earth (km/sec)8.5
semimajor axis (AU)2.1923326
mean anomaly (°)216.23484
mean daily motion (°/day)0.30362970
aphelion distance (AU)2.452
period (years)3.25
P-vector [x]0.64751399
P-vector [y]-0.69897061
P-vector [z]-0.30358808
Q-vector [x]0.76204547
Q-vector [y]0.59574238
Q-vector [z]0.25372764
absolute magnitude17.8
phase slope0.15
uncertainty0
referenceMPEC 2024-E73
observations used308
oppositions17
arc length (days)8976
first opposition used1999
last opposition used2024
residual rms (arc-secs)0.81
perturbers coarse indicatorM-v
perturbers precise indicator003Ek
first observation date used1999-08-08.0
last observation date used2024-03-05.0
computer nameMPCLINUX
JD of orbit computation2456731.598796
perihelion JD uncertainty (days)7.2344E-05
argument of perihelion uncertainty (°)1.1698E-03
ascending node uncertainty (°)1.1697E-03
inclination uncertainty (°)5.6624E-06
eccentricity uncertainty 5.6607E-08
perihelion distance uncertainty (AU)1.2351E-07
Minimum Orbit Intersection Distances (in AU)
for orbit epoch: 2460400.5, reference: E2024-E73
Mercury1.49721
Venus1.20586
Earth0.91806
Mars0.5262
Jupiter2.74609
Saturn6.63604
Uranus16.0256
Neptune27.5968

Observations

315 total observations over interval: 1999 08 08.30614 – 2024 03 05.238528
These data are available for download (format description).

Date (UT) J2000 RA J2000 Dec Magn Location Ref
1999 08 08.30614 21 11 19.05 -16 20 51.1 19.3 V 691 – Steward Observatory, Kitt Peak-Spacewatch MPS 192411
1999 08 08.32818 21 11 17.69 -16 20 57.1 19.4 V 691 – Steward Observatory, Kitt Peak-Spacewatch MPS 192411
1999 08 08.35052 21 11 16.32 -16 21 03.1 19.2 V 691 – Steward Observatory, Kitt Peak-Spacewatch MPS 192411
2001 01 15.23361 08 03 00.46 +20 23 46.5 21.4 V 691 – Steward Observatory, Kitt Peak-Spacewatch MPS 192411
2001 01 15.25619 08 02 58.83 +20 23 51.3 21.1 V 691 – Steward Observatory, Kitt Peak-Spacewatch MPS 192411
2001 01 15.27864 08 02 57.19 +20 23 55.9 21.2 V 691 – Steward Observatory, Kitt Peak-Spacewatch MPS 192411
2003 11 21.40453 06 22 25.22 +23 05 03.1 20.4 R 695 – Kitt Peak MPS 192411
2003 11 21.46270 06 22 22.76 +23 05 04.2   695 – Kitt Peak MPS 192411
2005 04 02.42964 14 26 23.93 -14 03 27.6 18.8 R G96 – Mt. Lemmon Survey MPS 192411
2005 04 02.43560 14 26 23.64 -14 03 26.2 19.4 R G96 – Mt. Lemmon Survey MPS 192411
2005 04 02.44156 14 26 23.45 -14 03 24.7 19.9 R G96 – Mt. Lemmon Survey MPS 192411
2005 04 02.44751 14 26 23.15 -14 03 23.7 20.1 R G96 – Mt. Lemmon Survey MPS 192411
2005 04 17.35032 14 13 40.49 -12 57 56.6 19.9 V 691 – Steward Observatory, Kitt Peak-Spacewatch MPS 192411
2005 04 17.36908 14 13 39.42 -12 57 50.5 20.3 V 691 – Steward Observatory, Kitt Peak-Spacewatch MPS 192411
2005 04 17.38764 14 13 38.27 -12 57 44.8 20.1 V 691 – Steward Observatory, Kitt Peak-Spacewatch MPS 192411
2006 10 17.36310 03 57 16.56 +20 02 55.0 20.9 V G96 – Mt. Lemmon Survey MPS 190671
2006 10 17.36991 03 57 16.38 +20 02 55.1 20.8 V G96 – Mt. Lemmon Survey MPS 190671
2006 10 17.37679 03 57 16.05 +20 02 54.2 20.8 V G96 – Mt. Lemmon Survey MPS 190671
2006 10 17.38355 03 57 15.84 +20 02 53.1 20.7 V G96 – Mt. Lemmon Survey MPS 190671
2006 10 27.39568 03 49 56.60 +19 40 08.3 20.5 V G96 – Mt. Lemmon Survey MPS 190671
2006 10 27.40673 03 49 55.99 +19 40 06.2 20.2 V G96 – Mt. Lemmon Survey MPS 190671
2006 10 27.41784 03 49 55.34 +19 40 04.4 20.1 V G96 – Mt. Lemmon Survey MPS 190671
2006 10 27.42892 03 49 54.76 +19 40 02.7 20.2 V G96 – Mt. Lemmon Survey MPS 190671
2006 11 11.34224 03 34 27.73 +18 49 21.3 20.1 V G96 – Mt. Lemmon Survey MPS 187252
2006 11 11.34674 03 34 27.40 +18 49 19.9 20.2 V G96 – Mt. Lemmon Survey MPS 187252
2006 11 11.35130 03 34 27.08 +18 49 19.0 20.0 V G96 – Mt. Lemmon Survey MPS 187252
2006 11 11.35574 03 34 26.76 +18 49 18.3 20.1 V G96 – Mt. Lemmon Survey MPS 187252
2006 11 14.16987 03 31 14.18 +18 38 11.8   691 – Steward Observatory, Kitt Peak-Spacewatch MPS 187252
2006 11 14.18720 03 31 12.93 +18 38 07.8   691 – Steward Observatory, Kitt Peak-Spacewatch MPS 187252
2006 11 14.20453 03 31 11.75 +18 38 04.0   691 – Steward Observatory, Kitt Peak-Spacewatch MPS 187252
2006 11 16.28594 03 28 48.28 +18 29 42.0 19.8 V 703 – Catalina Sky Survey MPS 187252
2006 11 16.29721 03 28 47.46 +18 29 40.8 19.7 V 703 – Catalina Sky Survey MPS 187252
2006 11 16.30852 03 28 46.70 +18 29 37.8 19.8 V 703 – Catalina Sky Survey MPS 187252
2006 11 16.31980 03 28 45.87 +18 29 35.3 19.7 V 703 – Catalina Sky Survey MPS 187252
2006 11 27.20986 03 16 47.89 +17 46 10.0 20.7 V G96 – Mt. Lemmon Survey MPS 190671
2006 11 27.21597 03 16 47.49 +17 46 08.6 20.4 V G96 – Mt. Lemmon Survey MPS 190671
2006 11 27.22194 03 16 47.10 +17 46 07.1 20.5 V G96 – Mt. Lemmon Survey MPS 190671
2006 11 27.22794 03 16 46.77 +17 46 05.8 20.7 V G96 – Mt. Lemmon Survey MPS 190671
2006 12 15.24750 03 02 31.38 +16 51 51.8 21.1 V G96 – Mt. Lemmon Survey MPS 192411
2006 12 15.25585 03 02 31.12 +16 51 51.6 21.4 V G96 – Mt. Lemmon Survey MPS 192411
2006 12 15.26397 03 02 30.87 +16 51 49.9 21.0 V G96 – Mt. Lemmon Survey MPS 192411
2006 12 15.27202 03 02 30.55 +16 51 48.9 20.7 V G96 – Mt. Lemmon Survey MPS 192411
2007 01 15.27590 03 02 21.30 +16 56 47.6 21.8 r 568 – Maunakea MPS 268682
2007 01 15.32135 03 02 22.51 +16 56 53.3 21.9 r 568 – Maunakea MPS 268682
2007 01 15.36360 03 02 23.65 +16 56 58.5 21.7 r 568 – Maunakea MPS 268682
2007 01 16.26947 03 02 50.47 +16 58 58.5 22.2 r 568 – Maunakea MPS 268682
2008 02 13.33178 12 20 15.50 -01 54 02.4 21.3 V G96 – Mt. Lemmon Survey MPS 237629
2008 02 13.33786 12 20 15.36 -01 54 01.8 21.6 V G96 – Mt. Lemmon Survey MPS 237629
2008 02 13.34393 12 20 15.21 -01 54 01.0 21.6 V G96 – Mt. Lemmon Survey MPS 237629
2008 02 13.35002 12 20 15.10 -01 53 59.8 21.4 V G96 – Mt. Lemmon Survey MPS 237629
2008 03 08.37565 12 04 33.24 -00 08 20.4 20.9 V G96 – Mt. Lemmon Survey MPS 242192
2008 03 08.38108 12 04 32.91 -00 08 18.6 20.6 V G96 – Mt. Lemmon Survey MPS 242192
2008 03 08.38654 12 04 32.59 -00 08 16.7 20.8 V G96 – Mt. Lemmon Survey MPS 242192
2008 03 08.39204 12 04 32.26 -00 08 14.3 20.7 V G96 – Mt. Lemmon Survey MPS 242192
2008 03 27.20904 11 45 57.88 +01 54 04.6 20.5 V G96 – Mt. Lemmon Survey MPS 244068
2008 03 27.21620 11 45 57.45 +01 54 07.4 20.2 V G96 – Mt. Lemmon Survey MPS 244068
2008 03 27.22334 11 45 57.02 +01 54 10.2 20.6 V G96 – Mt. Lemmon Survey MPS 244068
2008 03 27.23056 11 45 56.59 +01 54 12.9 20.4 V G96 – Mt. Lemmon Survey MPS 244068
2008 04 24.18438 11 25 57.97 +04 02 23.2 20.9 V G96 – Mt. Lemmon Survey MPS 248056
2008 04 24.18991 11 25 57.86 +04 02 24.9 21.3 V G96 – Mt. Lemmon Survey MPS 248056
2008 04 24.19544 11 25 57.68 +04 02 25.5 21.1 V G96 – Mt. Lemmon Survey MPS 248056
2008 04 24.20102 11 25 57.57 +04 02 25.6 21.1 V G96 – Mt. Lemmon Survey MPS 248056
2009 09 20.24834 00 59 45.59 +05 55 31.9 20.1 V 691 – Steward Observatory, Kitt Peak-Spacewatch MPS 296767
2009 09 20.26596 00 59 44.64 +05 55 26.2 19.7 V 691 – Steward Observatory, Kitt Peak-Spacewatch MPS 296767
2009 09 20.28359 00 59 43.76 +05 55 20.5 20.1 V 691 – Steward Observatory, Kitt Peak-Spacewatch MPS 296767
2009 09 24.27363 00 56 12.79 +05 32 54.2 19.9 V 691 – Steward Observatory, Kitt Peak-Spacewatch MPS 296767
2009 09 24.29129 00 56 11.84 +05 32 48.4 19.9 V 691 – Steward Observatory, Kitt Peak-Spacewatch MPS 296767
2009 09 24.30907 00 56 10.82 +05 32 42.6 20.2 V 691 – Steward Observatory, Kitt Peak-Spacewatch MPS 296767
2009 09 28.23961 00 52 29.83 +05 09 12.1 19.7 V 691 – Steward Observatory, Kitt Peak-Spacewatch MPS 297711
2009 09 28.25722 00 52 28.76 +05 09 05.5 19.9 V 691 – Steward Observatory, Kitt Peak-Spacewatch MPS 297711
2009 09 28.27482 00 52 27.69 +05 08 59.1 19.7 V 691 – Steward Observatory, Kitt Peak-Spacewatch MPS 297711
2009 10 09.23896 00 41 48.19 +04 01 03.7 19.5 V 703 – Catalina Sky Survey MPS 298202
2009 10 09.24436 00 41 47.79 +04 01 00.8 19.3 V 703 – Catalina Sky Survey MPS 298202
2009 10 09.24987 00 41 47.36 +04 00 57.1 20.5 V 703 – Catalina Sky Survey MPS 298202
2009 10 09.25527 00 41 47.14 +04 00 54.7 19.5 V 703 – Catalina Sky Survey MPS 298202
2009 10 15.24727 00 36 16.02 +03 25 47.6 19.7 V G96 – Mt. Lemmon Survey MPS 299197
2009 10 15.25432 00 36 15.62 +03 25 45.1 19.8 V G96 – Mt. Lemmon Survey MPS 299197
2009 10 15.26115 00 36 15.22 +03 25 42.9 19.9 V G96 – Mt. Lemmon Survey MPS 299197
2009 10 15.26807 00 36 14.83 +03 25 40.2 19.8 V G96 – Mt. Lemmon Survey MPS 299197
2009 11 11.22948 00 21 56.05 +01 56 29.8 20.7 V G96 – Mt. Lemmon Survey MPS 303075
2009 11 11.23734 00 21 55.94 +01 56 29.9 20.8 V G96 – Mt. Lemmon Survey MPS 303075
2009 11 11.24532 00 21 55.87 +01 56 29.4 21.0 V G96 – Mt. Lemmon Survey MPS 303075
2009 11 11.25319 00 21 55.80 +01 56 29.7 20.8 V G96 – Mt. Lemmon Survey MPS 303075
2011 03 03.22100 09 46 14.44 +13 38 16.2 21.2 V G96 – Mt. Lemmon Survey MPS 373180
2011 03 03.22621 09 46 14.08 +13 38 18.0 20.6 V G96 – Mt. Lemmon Survey MPS 373180
2011 03 03.23147 09 46 13.80 +13 38 19.3 20.9 V G96 – Mt. Lemmon Survey MPS 373180
2011 03 03.23671 09 46 13.47 +13 38 21.0 21.0 V G96 – Mt. Lemmon Survey MPS 373180
2011 03 06.31765 09 43 21.37 +13 53 09.6 21.4 V 291 – LPL/Spacewatch II MPS 374594
2011 03 06.32146 09 43 21.15 +13 53 10.8 21.3 V 291 – LPL/Spacewatch II MPS 374594
2011 03 06.32522 09 43 20.95 +13 53 11.8 21.3 V 291 – LPL/Spacewatch II MPS 374594
2012 06 12.26353 21 39 17.26 -13 58 17.2 19.8 J W91 – VHS-VISTA, Cerro Paranal MPS 677902
2012 06 12.26487 21 39 17.30 -13 58 16.8 20.0 J W91 – VHS-VISTA, Cerro Paranal MPS 677902
2012 06 12.26910 21 39 17.47 -13 58 16.0 20.0 Y W91 – VHS-VISTA, Cerro Paranal MPS 677902
